Time,TemperatureF,DewpointF,PressureIn,WindDirection,WindDirectionDegrees,WindSpeedMPH,WindSpeedGustMPH,Humidity,HourlyPrecipIn,Conditions,Clouds,dailyrainin,SoftwareType,DateUTC
2013-06-21 00:00:00,64.7,56.2,30.20,SSW,205,0.0,0.0,74,0.00,,,0.00,Wunderground v.1.15,2013-06-21 04:00:00,
2013-06-21 00:02:00,64.6,56.1,30.20,SSW,205,0.0,0.0,74,0.00,,,0.00,Wunderground v.1.15,2013-06-21 04:02:00,
2013-06-21 00:03:00,64.5,56.0,30.20,SSW,205,0.0,0.0,74,0.00,,,0.00,Wunderground v.1.15,2013-06-21 04:03:00,
2013-06-21 00:04:00,64.5,56.0,30.20,SSW,205,0.0,0.0,74,0.00,,,0.00,Wunderground v.1.15,2013-06-21 04:04:00,
2013-06-21 00:05:00,64.4,55.9,30.20,SSW,205,0.0,0.0,74,0.00,,,0.00,Wunderground v.1.15,2013-06-21 04:05:00,
2013-06-21 00:11:00,64.0,55.9,30.21,SSW,205,0.0,0.0,75,0.00,,,0.00,Wunderground v.1.15,2013-06-21 04:11:00,
2013-06-21 00:14:00,63.8,55.7,30.21,SSW,205,0.0,0.0,75,0.00,,,0.00,Wunderground v.1.15,2013-06-21 04:14:00,
2013-06-21 00:19:00,63.4,55.7,30.21,SSW,205,0.0,0.0,76,0.00,,,0.00,Wunderground v.1.15,2013-06-21 04:19:00,
2013-06-21 00:24:00,63.0,55.7,30.21,SSW,205,0.0,0.0,77,0.00,,,0.00,Wunderground v.1.15,2013-06-21 04:24:00,
2013-06-21 00:30:00,62.5,55.5,30.21,SSW,205,0.0,0.0,78,0.00,,,0.00,Wunderground v.1.15,2013-06-21 04:30:00,
2013-06-21 00:35:00,62.1,55.2,30.21,SSW,205,0.0,0.0,78,0.00,,,0.00,Wunderground v.1.15,2013-06-21 04:35:00,
2013-06-21 00:42:00,61.7,55.5,30.21,SSW,205,0.0,0.0,80,0.00,,,0.00,Wunderground v.1.15,2013-06-21 04:42:00,
2013-06-21 00:47:00,61.4,55.2,30.21,SSW,205,0.0,0.0,80,0.00,,,0.00,Wunderground v.1.15,2013-06-21 04:47:00,
2013-06-21 00:53:00,61.1,55.2,30.21,SSW,205,0.0,0.0,81,0.00,,,0.00,Wunderground v.1.15,2013-06-21 04:53:00,
2013-06-21 00:58:00,61.0,55.1,30.21,SSW,205,0.0,0.0,81,0.00,,,0.00,Wunderground v.1.15,2013-06-21 04:58:00,
2013-06-21 01:03:00,60.8,54.9,30.21,SSW,205,0.0,0.0,81,0.00,,,0.00,Wunderground v.1.15,2013-06-21 05:03:00,
2013-06-21 01:09:00,60.6,54.7,30.21,SSW,205,0.0,0.0,81,0.00,,,0.00,Wunderground v.1.15,2013-06-21 05:09:00,
2013-06-21 01:14:00,60.4,54.5,30.21,SSW,205,0.0,0.0,81,0.00,,,0.00,Wunderground v.1.15,2013-06-21 05:14:00,
2013-06-21 01:20:00,60.1,54.6,30.21,SSW,205,0.0,0.0,82,0.00,,,0.00,Wunderground v.1.15,2013-06-21 05:20:00,
2013-06-21 01:26:00,59.9,54.7,30.20,SSW,205,0.0,0.0,83,0.00,,,0.00,Wunderground v.1.15,2013-06-21 05:26:00,
2013-06-21 01:32:00,59.7,54.5,30.20,SSW,205,0.0,0.0,83,0.00,,,0.00,Wunderground v.1.15,2013-06-21 05:32:00,
2013-06-21 01:37:00,59.5,54.3,30.20,SSW,205,0.0,0.0,83,0.00,,,0.00,Wunderground v.1.15,2013-06-21 05:37:00,
2013-06-21 01:43:00,59.6,54.4,30.20,SSW,205,0.0,0.0,83,0.00,,,0.00,Wunderground v.1.15,2013-06-21 05:43:00,
2013-06-21 01:48:00,59.6,54.4,30.20,SSW,205,0.0,0.0,83,0.00,,,0.00,Wunderground v.1.15,2013-06-21 05:48:00,
2013-06-21 01:53:00,59.5,54.3,30.20,SSW,205,0.0,1.0,83,0.00,,,0.00,Wunderground v.1.15,2013-06-21 05:53:00,
2013-06-21 01:59:00,59.6,54.4,30.20,SSW,205,0.0,0.0,83,0.00,,,0.00,Wunderground v.1.15,2013-06-21 05:59:00,
2013-06-21 02:04:00,59.7,54.2,30.20,SSW,205,0.0,0.0,82,0.00,,,0.00,Wunderground v.1.15,2013-06-21 06:04:00,
2013-06-21 02:10:00,59.8,54.0,30.20,SSW,205,0.0,0.0,81,0.00,,,0.00,Wunderground v.1.15,2013-06-21 06:10:00,
2013-06-21 02:15:00,59.9,54.1,30.19,SSW,205,0.0,0.0,81,0.00,,,0.00,Wunderground v.1.15,2013-06-21 06:15:00,
2013-06-21 02:22:00,60.0,53.8,30.19,SSW,205,0.0,0.0,80,0.00,,,0.00,Wunderground v.1.15,2013-06-21 06:22:00,
2013-06-21 02:27:00,60.2,54.0,30.19,SSW,205,0.0,2.0,80,0.00,,,0.00,Wunderground v.1.15,2013-06-21 06:27:00,
2013-06-21 02:33:00,60.4,53.9,30.19,SSW,205,0.0,0.0,79,0.00,,,0.00,Wunderground v.1.15,2013-06-21 06:33:00,
2013-06-21 02:38:00,60.7,53.8,30.18,SSW,203,0.0,2.0,78,0.00,,,0.00,Wunderground v.1.15,2013-06-21 06:38:00,
2013-06-21 02:43:00,61.2,53.9,30.18,SSW,196,0.0,2.0,77,0.00,,,0.00,Wunderground v.1.15,2013-06-21 06:43:00,
2013-06-21 02:49:00,61.6,54.0,30.18,SSW,196,1.0,1.0,76,0.00,,,0.00,Wunderground v.1.15,2013-06-21 06:49:00,
2013-06-21 02:55:00,61.9,53.9,30.18,SSW,193,1.0,1.0,75,0.00,,,0.00,Wunderground v.1.15,2013-06-21 06:55:00,
2013-06-21 03:00:00,62.1,53.7,30.18,SSW,192,0.0,0.0,74,0.00,,,0.00,Wunderground v.1.15,2013-06-21 07:00:00,
2013-06-21 03:06:00,62.1,53.7,30.19,SSW,192,0.0,0.0,74,0.00,,,0.00,Wunderground v.1.15,2013-06-21 07:06:00,
2013-06-21 03:11:00,61.9,53.9,30.18,SSW,192,0.0,0.0,75,0.00,,,0.00,Wunderground v.1.15,2013-06-21 07:11:00,
2013-06-21 03:17:00,61.7,53.7,30.18,SSW,193,0.0,0.0,75,0.00,,,0.00,Wunderground v.1.15,2013-06-21 07:17:00,
2013-06-21 03:23:00,61.3,53.7,30.18,SSW,193,0.0,0.0,76,0.00,,,0.00,Wunderground v.1.15,2013-06-21 07:23:00,
2013-06-21 03:28:00,60.9,53.3,30.18,SSW,192,0.0,0.0,76,0.00,,,0.00,Wunderground v.1.15,2013-06-21 07:28:00,
2013-06-21 03:34:00,60.5,53.3,30.18,SSW,192,0.0,0.0,77,0.00,,,0.00,Wunderground v.1.15,2013-06-21 07:34:00,
2013-06-21 03:39:00,60.2,53.3,30.18,SSW,192,0.0,0.0,78,0.00,,,0.00,Wunderground v.1.15,2013-06-21 07:39:00,
2013-06-21 03:44:00,59.9,53.0,30.18,SSW,193,0.0,0.0,78,0.00,,,0.00,Wunderground v.1.15,2013-06-21 07:44:00,
2013-06-21 03:50:00,59.6,53.1,30.18,SSW,193,0.0,0.0,79,0.00,,,0.00,Wunderground v.1.15,2013-06-21 07:50:00,
2013-06-21 03:56:00,59.4,53.2,30.18,SSW,193,0.0,0.0,80,0.00,,,0.00,Wunderground v.1.15,2013-06-21 07:56:00,
2013-06-21 04:02:00,59.2,53.0,30.18,SSW,193,0.0,0.0,80,0.00,,,0.00,Wunderground v.1.15,2013-06-21 08:02:00,
2013-06-21 04:08:00,59.3,53.1,30.18,SSW,193,0.0,0.0,80,0.00,,,0.00,Wunderground v.1.15,2013-06-21 08:08:00,
2013-06-21 04:13:00,59.4,53.2,30.18,SSW,192,0.0,0.0,80,0.00,,,0.00,Wunderground v.1.15,2013-06-21 08:13:00,
2013-06-21 04:19:00,59.5,53.3,30.18,SSW,193,0.0,0.0,80,0.00,,,0.00,Wunderground v.1.15,2013-06-21 08:19:00,
2013-06-21 04:24:00,59.8,53.6,30.18,SSW,193,0.0,0.0,80,0.00,,,0.00,Wunderground v.1.15,2013-06-21 08:24:00,
2013-06-21 04:30:00,60.1,53.6,30.17,SSW,193,0.0,0.0,79,0.00,,,0.00,Wunderground v.1.15,2013-06-21 08:30:00,
2013-06-21 04:35:00,60.2,53.7,30.17,SSW,193,0.0,0.0,79,0.00,,,0.00,Wunderground v.1.15,2013-06-21 08:35:00,
2013-06-21 04:40:00,60.4,53.9,30.17,SSW,192,0.0,0.0,79,0.00,,,0.00,Wunderground v.1.15,2013-06-21 08:40:00,
2013-06-21 04:45:00,60.6,53.7,30.17,SSW,192,0.0,0.0,78,0.00,,,0.00,Wunderground v.1.15,2013-06-21 08:45:00,
2013-06-21 04:51:00,60.8,53.9,30.17,South,190,0.0,0.0,78,0.00,,,0.00,Wunderground v.1.15,2013-06-21 08:51:00,
2013-06-21 04:57:00,61.2,54.3,30.17,South,190,1.0,3.0,78,0.00,,,0.00,Wunderground v.1.15,2013-06-21 08:57:00,
2013-06-21 05:03:00,61.6,54.3,30.17,South,190,1.0,1.0,77,0.00,,,0.00,Wunderground v.1.15,2013-06-21 09:03:00,
2013-06-21 05:08:00,61.9,54.2,30.17,SSW,202,0.0,3.0,76,0.00,,,0.00,Wunderground v.1.15,2013-06-21 09:08:00,
2013-06-21 05:14:00,62.2,54.5,30.17,SSW,198,0.0,0.0,76,0.00,,,0.00,Wunderground v.1.15,2013-06-21 09:14:00,
2013-06-21 05:19:00,62.3,54.6,30.17,SSW,195,0.0,0.0,76,0.00,,,0.00,Wunderground v.1.15,2013-06-21 09:19:00,
2013-06-21 05:24:00,62.3,54.6,30.17,SSW,194,0.0,0.0,76,0.00,,,0.00,Wunderground v.1.15,2013-06-21 09:24:00,
2013-06-21 05:30:00,62.4,54.4,30.17,West,269,0.0,0.0,75,0.00,,,0.00,Wunderground v.1.15,2013-06-21 09:30:00,
2013-06-21 05:35:00,62.4,54.7,30.17,West,268,0.0,1.0,76,0.00,,,0.00,Wunderground v.1.15,2013-06-21 09:35:00,
2013-06-21 05:41:00,62.3,54.6,30.17,West,275,0.0,0.0,76,0.00,,,0.00,Wunderground v.1.15,2013-06-21 09:41:00,
2013-06-21 05:46:00,62.2,54.5,30.17,West,276,0.0,3.0,76,0.00,,,0.00,Wunderground v.1.15,2013-06-21 09:46:00,
2013-06-21 05:53:00,62.3,54.6,30.17,WSW,258,0.0,0.0,76,0.00,,,0.00,Wunderground v.1.15,2013-06-21 09:53:00,
2013-06-21 05:58:00,62.5,54.8,30.17,West,259,0.0,0.0,76,0.00,,,0.00,Wunderground v.1.15,2013-06-21 09:58:00,
2013-06-21 06:04:00,62.5,54.8,30.17,West,259,0.0,0.0,76,0.00,,,0.00,Wunderground v.1.15,2013-06-21 10:04:00,
2013-06-21 06:09:00,62.5,54.8,30.17,West,259,0.0,0.0,76,0.00,,,0.00,Wunderground v.1.15,2013-06-21 10:09:00,
2013-06-21 06:15:00,62.6,54.6,30.17,SW,221,0.0,0.0,75,0.00,,,0.00,Wunderground v.1.15,2013-06-21 10:15:00,
2013-06-21 06:20:00,62.7,54.7,30.17,SW,220,0.0,2.0,75,0.00,,,0.00,Wunderground v.1.15,2013-06-21 10:20:00,
2013-06-21 06:26:00,62.9,54.9,30.18,SSW,195,0.0,2.0,75,0.00,,,0.00,Wunderground v.1.15,2013-06-21 10:26:00,
2013-06-21 06:31:00,63.0,55.3,30.17,WNW,298,0.0,0.0,76,0.00,,,0.00,Wunderground v.1.15,2013-06-21 10:31:00,
2013-06-21 06:38:00,63.1,55.4,30.17,SSW,207,0.0,2.0,76,0.00,,,0.00,Wunderground v.1.15,2013-06-21 10:38:00,
2013-06-21 06:43:00,63.2,55.5,30.17,SSW,206,0.0,0.0,76,0.00,,,0.00,Wunderground v.1.15,2013-06-21 10:43:00,
2013-06-21 06:48:00,63.3,55.6,30.17,SSW,205,0.0,0.0,76,0.00,,,0.00,Wunderground v.1.15,2013-06-21 10:48:00,
2013-06-21 06:54:00,63.5,55.8,30.17,SSW,194,0.0,0.0,76,0.00,,,0.00,Wunderground v.1.15,2013-06-21 10:54:00,
2013-06-21 06:59:00,63.7,56.4,30.17,NW,314,0.0,0.0,77,0.00,,,0.00,Wunderground v.1.15,2013-06-21 10:59:00,
2013-06-21 07:04:00,63.9,56.5,30.17,South,186,0.0,3.0,77,0.00,,,0.00,Wunderground v.1.15,2013-06-21 11:04:00,
2013-06-21 07:10:00,64.3,56.9,30.17,South,173,1.0,2.0,77,0.00,,,0.00,Wunderground v.1.15,2013-06-21 11:10:00,
2013-06-21 07:16:00,64.6,57.2,30.16,South,178,0.0,2.0,77,0.00,,,0.00,Wunderground v.1.15,2013-06-21 11:16:00,
2013-06-21 07:21:00,64.8,57.4,30.16,SSE,164,1.0,1.0,77,0.00,,,0.00,Wunderground v.1.15,2013-06-21 11:21:00,
2013-06-21 07:26:00,65.1,57.7,30.16,SSW,209,1.0,1.0,77,0.00,,,0.00,Wunderground v.1.15,2013-06-21 11:26:00,
2013-06-21 07:32:00,65.4,58.0,30.16,SSW,202,1.0,2.0,77,0.00,,,0.00,Wunderground v.1.15,2013-06-21 11:32:00,
2013-06-21 07:37:00,65.8,58.4,30.16,SSW,201,1.0,5.0,77,0.00,,,0.00,Wunderground v.1.15,2013-06-21 11:37:00,
2013-06-21 07:43:00,66.1,58.3,30.17,SSW,199,0.0,1.0,76,0.00,,,0.00,Wunderground v.1.15,2013-06-21 11:43:00,
2013-06-21 07:48:00,66.5,59.1,30.18,SSW,199,0.0,1.0,77,0.00,,,0.00,Wunderground v.1.15,2013-06-21 11:48:00,
2013-06-21 07:54:00,67.0,59.2,30.18,SSW,194,1.0,3.0,76,0.00,,,0.00,Wunderground v.1.15,2013-06-21 11:54:00,
2013-06-21 07:59:00,67.4,59.2,30.18,SSE,168,1.0,1.0,75,0.00,,,0.00,Wunderground v.1.15,2013-06-21 11:59:00,
2013-06-21 08:05:00,68.0,59.8,30.18,South,180,1.0,4.0,75,0.00,,,0.00,Wunderground v.1.15,2013-06-21 12:05:00,
2013-06-21 08:10:00,68.4,60.2,30.18,South,181,1.0,1.0,75,0.00,,,0.00,Wunderground v.1.15,2013-06-21 12:10:00,
2013-06-21 08:16:00,68.8,60.6,30.18,South,178,0.0,1.0,75,0.00,,,0.00,Wunderground v.1.15,2013-06-21 12:16:00,
2013-06-21 08:21:00,69.0,60.4,30.19,SSW,206,1.0,4.0,74,0.00,,,0.00,Wunderground v.1.15,2013-06-21 12:21:00,
2013-06-21 08:27:00,69.1,60.5,30.21,WNW,292,1.0,4.0,74,0.00,,,0.00,Wunderground v.1.15,2013-06-21 12:27:00,
2013-06-21 08:33:00,68.8,60.6,30.20,WNW,294,1.0,1.0,75,0.41,,,0.02,Wunderground v.1.15,2013-06-21 12:33:00,
2013-06-21 08:38:00,68.4,61.6,30.20,WNW,293,0.0,1.0,79,0.10,,,0.03,Wunderground v.1.15,2013-06-21 12:38:00,
2013-06-21 08:44:00,68.0,62.3,30.20,NNE,15,0.0,0.0,82,0.08,,,0.03,Wunderground v.1.15,2013-06-21 12:44:00,
2013-06-21 08:49:00,67.6,62.6,30.20,NNE,14,0.0,0.0,84,0.05,,,0.03,Wunderground v.1.15,2013-06-21 12:49:00,
2013-06-21 08:55:00,67.0,62.3,30.19,North,10,0.0,0.0,85,0.00,,,0.03,Wunderground v.1.15,2013-06-21 12:55:00,
2013-06-21 09:00:00,66.6,61.9,30.19,NNE,15,0.0,1.0,85,0.00,,,0.03,Wunderground v.1.15,2013-06-21 13:00:00,
2013-06-21 09:06:00,66.2,61.6,30.19,SSE,155,0.0,2.0,85,0.00,,,0.03,Wunderground v.1.15,2013-06-21 13:06:00,
2013-06-21 09:11:00,66.1,61.8,30.18,SSE,155,0.0,0.0,86,0.00,,,0.03,Wunderground v.1.15,2013-06-21 13:11:00,
2013-06-21 09:17:00,66.2,62.2,30.17,SSE,158,0.0,0.0,87,0.00,,,0.03,Wunderground v.1.15,2013-06-21 13:17:00,
2013-06-21 09:23:00,66.6,62.6,30.16,SSE,153,0.0,1.0,87,0.00,,,0.03,Wunderground v.1.15,2013-06-21 13:23:00,
2013-06-21 09:28:00,67.0,63.0,30.16,SSE,148,1.0,2.0,87,0.00,,,0.03,Wunderground v.1.15,2013-06-21 13:28:00,
2013-06-21 09:34:00,67.5,62.5,30.16,SSE,160,1.0,3.0,84,0.00,,,0.03,Wunderground v.1.15,2013-06-21 13:34:00,
2013-06-21 09:40:00,68.5,63.5,30.16,SE,137,2.0,3.0,84,0.00,,,0.03,Wunderground v.1.15,2013-06-21 13:40:00,
2013-06-21 09:45:00,69.3,64.3,30.15,SE,144,1.0,3.0,84,0.00,,,0.03,Wunderground v.1.15,2013-06-21 13:45:00,
2013-06-21 09:51:00,70.4,65.0,30.16,SE,144,0.0,0.0,83,0.00,,,0.03,Wunderground v.1.15,2013-06-21 13:51:00,
2013-06-21 09:56:00,71.3,64.8,30.16,SSE,156,0.0,2.0,80,0.00,,,0.03,Wunderground v.1.15,2013-06-21 13:56:00,
2013-06-21 10:01:00,72.1,65.2,30.16,SSE,159,0.0,0.0,79,0.00,,,0.03,Wunderground v.1.15,2013-06-21 14:01:00,
2013-06-21 10:07:00,73.1,65.5,30.16,South,173,0.0,2.0,77,0.00,,,0.03,Wunderground v.1.15,2013-06-21 14:07:00,
2013-06-21 10:13:00,73.7,66.0,30.17,South,176,0.0,1.0,77,0.00,,,0.03,Wunderground v.1.15,2013-06-21 14:13:00,
2013-06-21 10:18:00,73.9,65.5,30.17,SSW,193,0.0,1.0,75,0.00,,,0.03,Wunderground v.1.15,2013-06-21 14:18:00,
2013-06-21 10:23:00,74.0,65.6,30.18,SSW,193,0.0,0.0,75,0.00,,,0.03,Wunderground v.1.15,2013-06-21 14:23:00,
2013-06-21 10:29:00,73.9,65.9,30.18,SSW,192,0.0,0.0,76,0.00,,,0.03,Wunderground v.1.15,2013-06-21 14:29:00,
2013-06-21 10:34:00,73.9,65.9,30.18,NE,34,0.0,0.0,76,0.00,,,0.03,Wunderground v.1.15,2013-06-21 14:34:00,
2013-06-21 10:40:00,73.7,65.3,30.18,NE,34,0.0,0.0,75,0.00,,,0.03,Wunderground v.1.15,2013-06-21 14:40:00,
2013-06-21 10:45:00,73.7,65.3,30.18,NNW,340,0.0,0.0,75,0.00,,,0.03,Wunderground v.1.15,2013-06-21 14:45:00,
2013-06-21 10:51:00,73.7,65.7,30.18,SSW,192,0.0,1.0,76,0.00,,,0.03,Wunderground v.1.15,2013-06-21 14:51:00,
2013-06-21 10:56:00,73.8,65.4,30.18,SSW,207,0.0,1.0,75,0.00,,,0.03,Wunderground v.1.15,2013-06-21 14:56:00,
2013-06-21 11:02:00,73.9,65.5,30.18,SSW,207,0.0,0.0,75,0.00,,,0.03,Wunderground v.1.15,2013-06-21 15:02:00,
2013-06-21 11:08:00,74.1,65.3,30.18,SSW,208,0.0,2.0,74,0.00,,,0.03,Wunderground v.1.15,2013-06-21 15:08:00,
2013-06-21 11:14:00,74.3,65.9,30.18,SSW,208,0.0,0.0,75,0.00,,,0.03,Wunderground v.1.15,2013-06-21 15:14:00,
2013-06-21 11:19:00,74.7,65.5,30.17,SSW,208,0.0,0.0,73,0.00,,,0.03,Wunderground v.1.15,2013-06-21 15:19:00,
2013-06-21 11:25:00,75.5,66.2,30.17,SSW,208,0.0,3.0,73,0.00,,,0.03,Wunderground v.1.15,2013-06-21 15:25:00,
2013-06-21 11:30:00,76.2,65.7,30.17,WSW,241,0.0,0.0,70,0.00,,,0.03,Wunderground v.1.15,2013-06-21 15:30:00,
2013-06-21 11:35:00,76.6,65.2,30.17,SSW,212,1.0,2.0,68,0.00,,,0.03,Wunderground v.1.15,2013-06-21 15:35:00,
2013-06-21 11:41:00,77.3,65.5,30.17,SW,214,1.0,2.0,67,0.00,,,0.03,Wunderground v.1.15,2013-06-21 15:41:00,
2013-06-21 11:46:00,77.9,66.9,30.18,SW,225,1.0,2.0,69,0.00,,,0.03,Wunderground v.1.15,2013-06-21 15:46:00,
2013-06-21 11:52:00,78.4,66.5,30.18,SSW,206,1.0,5.0,67,0.00,,,0.03,Wunderground v.1.15,2013-06-21 15:52:00,
2013-06-21 11:58:00,78.7,65.9,30.18,SSW,209,1.0,5.0,65,0.00,,,0.03,Wunderground v.1.15,2013-06-21 15:58:00,
2013-06-21 12:03:00,78.9,66.1,30.18,West,259,1.0,1.0,65,0.00,,,0.03,Wunderground v.1.15,2013-06-21 16:03:00,
2013-06-21 12:08:00,79.1,65.9,30.17,WSW,247,0.0,2.0,64,0.00,,,0.03,Wunderground v.1.15,2013-06-21 16:08:00,
2013-06-21 12:14:00,79.7,67.3,30.17,SW,227,0.0,2.0,66,0.00,,,0.03,Wunderground v.1.15,2013-06-21 16:14:00,
2013-06-21 12:20:00,80.2,67.8,30.17,SW,229,0.0,0.0,66,0.00,,,0.03,Wunderground v.1.15,2013-06-21 16:20:00,
2013-06-21 12:25:00,80.8,67.5,30.17,SW,225,0.0,0.0,64,0.00,,,0.03,Wunderground v.1.15,2013-06-21 16:25:00,
2013-06-21 12:31:00,81.3,67.0,30.16,SW,215,1.0,2.0,62,0.00,,,0.03,Wunderground v.1.15,2013-06-21 16:31:00,
2013-06-21 12:38:00,81.8,66.1,30.16,SSW,196,1.0,7.0,59,0.00,,,0.03,Wunderground v.1.15,2013-06-21 16:38:00,
2013-06-21 12:44:00,81.8,65.6,30.16,WNW,284,2.0,6.0,58,0.00,,,0.03,Wunderground v.1.15,2013-06-21 16:44:00,
2013-06-21 12:50:00,81.7,65.5,30.16,SSW,207,2.0,2.0,58,0.00,,,0.03,Wunderground v.1.15,2013-06-21 16:50:00,
2013-06-21 12:56:00,81.8,67.5,30.15,South,190,1.0,5.0,62,0.00,,,0.03,Wunderground v.1.15,2013-06-21 16:56:00,
2013-06-21 13:01:00,81.9,66.2,30.15,South,186,1.0,11.0,59,0.00,,,0.03,Wunderground v.1.15,2013-06-21 17:01:00,
2013-06-21 13:06:00,82.0,68.2,30.15,SSW,205,2.0,11.0,63,0.00,,,0.03,Wunderground v.1.15,2013-06-21 17:06:00,
2013-06-21 13:13:00,82.3,66.5,30.15,SW,229,2.0,5.0,59,0.00,,,0.03,Wunderground v.1.15,2013-06-21 17:13:00,
2013-06-21 13:21:00,82.4,66.6,30.15,SSE,156,2.0,2.0,59,0.00,,,0.03,Wunderground v.1.15,2013-06-21 17:21:00,
2013-06-21 13:36:00,83.1,67.3,30.15,SSW,199,2.0,2.0,59,0.00,,,0.03,Wunderground v.1.15,2013-06-21 17:36:00,
2013-06-21 13:46:00,83.5,67.7,30.15,SSW,209,2.0,4.0,59,0.00,,,0.03,Wunderground v.1.15,2013-06-21 17:46:00,
2013-06-21 13:48:00,83.5,68.6,30.15,SSW,207,3.0,4.0,61,0.00,,,0.03,Wunderground v.1.15,2013-06-21 17:48:00,
2013-06-21 13:51:00,83.4,68.1,30.15,SW,217,3.0,4.0,60,0.00,,,0.03,Wunderground v.1.15,2013-06-21 17:51:00,
2013-06-21 13:54:00,83.4,68.1,30.15,SSW,194,2.0,4.0,60,0.00,,,0.03,Wunderground v.1.15,2013-06-21 17:54:00,
2013-06-21 13:56:00,83.3,68.0,30.15,SSW,213,2.0,8.0,60,0.00,,,0.03,Wunderground v.1.15,2013-06-21 17:56:00,
2013-06-21 14:01:00,83.3,68.0,30.15,WNW,289,2.0,3.0,60,0.00,,,0.03,Wunderground v.1.15,2013-06-21 18:01:00,
2013-06-21 14:07:00,83.4,67.1,30.15,SW,236,2.0,4.0,58,0.00,,,0.03,Wunderground v.1.15,2013-06-21 18:07:00,
2013-06-21 14:13:00,83.5,67.7,30.15,SW,216,2.0,5.0,59,0.00,,,0.03,Wunderground v.1.15,2013-06-21 18:13:00,
2013-06-21 14:19:00,83.5,67.2,30.15,South,184,2.0,6.0,58,0.00,,,0.03,Wunderground v.1.15,2013-06-21 18:19:00,
2013-06-21 14:24:00,83.5,68.2,30.15,SSW,210,2.0,6.0,60,0.00,,,0.03,Wunderground v.1.15,2013-06-21 18:24:00,
2013-06-21 14:25:00,83.5,68.6,30.15,SSW,202,2.0,6.0,61,0.00,,,0.03,Wunderground v.1.15,2013-06-21 18:25:00,
2013-06-21 14:27:00,83.5,67.7,30.15,SSW,205,3.0,6.0,59,0.00,,,0.03,Wunderground v.1.15,2013-06-21 18:27:00,
2013-06-21 14:29:00,83.5,67.2,30.15,SSW,202,3.0,6.0,58,0.00,,,0.03,Wunderground v.1.15,2013-06-21 18:29:00,
2013-06-21 14:31:00,83.6,67.8,30.15,SSW,202,2.0,3.0,59,0.00,,,0.03,Wunderground v.1.15,2013-06-21 18:31:00,
2013-06-21 14:37:00,83.7,68.8,30.14,SSW,213,2.0,7.0,61,0.00,,,0.03,Wunderground v.1.15,2013-06-21 18:37:00,
2013-06-21 14:42:00,84.0,69.1,30.14,SSW,210,1.0,4.0,61,0.00,,,0.03,Wunderground v.1.15,2013-06-21 18:42:00,
2013-06-21 14:45:00,84.2,67.8,30.14,SW,236,1.0,4.0,58,0.00,,,0.03,Wunderground v.1.15,2013-06-21 18:45:00,
2013-06-21 14:47:00,84.2,67.3,30.14,SW,226,1.0,4.0,57,0.00,,,0.03,Wunderground v.1.15,2013-06-21 18:47:00,
2013-06-21 14:49:00,84.2,68.8,30.14,SW,227,1.0,4.0,60,0.00,,,0.03,Wunderground v.1.15,2013-06-21 18:49:00,
2013-06-21 14:55:00,83.8,66.9,30.14,SSW,204,2.0,6.0,57,0.00,,,0.03,Wunderground v.1.15,2013-06-21 18:55:00,
2013-06-21 14:57:00,83.7,67.4,30.14,SW,219,2.0,6.0,58,0.00,,,0.03,Wunderground v.1.15,2013-06-21 18:57:00,
2013-06-21 15:02:00,83.7,68.3,30.14,SSW,204,2.0,4.0,60,0.00,,,0.03,Wunderground v.1.15,2013-06-21 19:02:00,
2013-06-21 15:09:00,83.5,66.7,30.14,SSW,207,2.0,6.0,57,0.00,,,0.03,Wunderground v.1.15,2013-06-21 19:09:00,
2013-06-21 15:14:00,83.4,67.1,30.14,SSW,210,3.0,4.0,58,0.00,,,0.03,Wunderground v.1.15,2013-06-21 19:14:00,
2013-06-21 15:20:00,83.4,67.6,30.13,SSW,209,3.0,3.0,59,0.00,,,0.03,Wunderground v.1.15,2013-06-21 19:20:00,
2013-06-21 15:26:00,83.4,65.5,30.14,SW,216,2.0,5.0,55,0.00,,,0.03,Wunderground v.1.15,2013-06-21 19:26:00,
2013-06-21 15:31:00,83.5,67.2,30.13,South,186,2.0,2.0,58,0.00,,,0.03,Wunderground v.1.15,2013-06-21 19:31:00,
2013-06-21 15:33:00,83.6,67.3,30.13,SSW,210,2.0,3.0,58,0.00,,,0.03,Wunderground v.1.15,2013-06-21 19:33:00,
2013-06-21 15:39:00,83.7,67.8,30.13,SSW,209,1.0,3.0,59,0.00,,,0.03,Wunderground v.1.15,2013-06-21 19:39:00,
2013-06-21 15:42:00,83.9,67.0,30.13,SSW,203,1.0,3.0,57,0.00,,,0.03,Wunderground v.1.15,2013-06-21 19:42:00,
2013-06-21 15:43:00,83.9,66.5,30.13,SW,218,1.0,3.0,56,0.00,,,0.03,Wunderground v.1.15,2013-06-21 19:43:00,
2013-06-21 15:49:00,83.8,66.9,30.13,SSW,207,2.0,7.0,57,0.00,,,0.03,Wunderground v.1.15,2013-06-21 19:49:00,
2013-06-21 15:54:00,83.6,66.8,30.13,SW,217,2.0,4.0,57,0.00,,,0.03,Wunderground v.1.15,2013-06-21 19:54:00,
2013-06-21 16:00:00,83.4,67.1,30.13,SSW,205,2.0,4.0,58,0.00,,,0.03,Wunderground v.1.15,2013-06-21 20:00:00,
2013-06-21 16:05:00,83.3,67.5,30.13,SSW,212,3.0,6.0,59,0.00,,,0.03,Wunderground v.1.15,2013-06-21 20:05:00,
2013-06-21 16:10:00,83.2,67.4,30.12,SW,217,2.0,2.0,59,0.00,,,0.03,Wunderground v.1.15,2013-06-21 20:10:00,
2013-06-21 16:14:00,83.2,68.3,30.12,SW,217,0.0,2.0,61,0.00,,,0.03,Wunderground v.1.15,2013-06-21 20:14:00,
2013-06-21 16:20:00,83.2,67.4,30.11,SSW,196,1.0,2.0,59,0.00,,,0.03,Wunderground v.1.15,2013-06-21 20:20:00,
2013-06-21 16:26:00,83.0,66.2,30.11,SW,218,2.0,6.0,57,0.00,,,0.03,Wunderground v.1.15,2013-06-21 20:26:00,
2013-06-21 16:32:00,82.9,66.6,30.10,SSW,209,2.0,3.0,58,0.00,,,0.03,Wunderground v.1.15,2013-06-21 20:32:00,
2013-06-21 16:38:00,82.7,65.4,30.10,SSW,211,3.0,7.0,56,0.00,,,0.03,Wunderground v.1.15,2013-06-21 20:38:00,
2013-06-21 16:46:00,82.5,65.2,30.09,SW,229,1.0,6.0,56,0.00,,,0.03,Wunderground v.1.15,2013-06-21 20:46:00,
2013-06-21 16:53:00,82.5,66.2,30.09,SSW,200,2.0,2.0,58,0.00,,,0.03,Wunderground v.1.15,2013-06-21 20:53:00,
2013-06-21 16:59:00,82.7,65.9,30.09,SSW,206,2.0,2.0,57,0.00,,,0.03,Wunderground v.1.15,2013-06-21 20:59:00,
2013-06-21 17:05:00,82.9,66.6,30.09,SSW,206,2.0,4.0,58,0.00,,,0.03,Wunderground v.1.15,2013-06-21 21:05:00,
2013-06-21 17:10:00,83.1,67.3,30.08,SSW,210,1.0,1.0,59,0.00,,,0.03,Wunderground v.1.15,2013-06-21 21:10:00,
2013-06-21 17:14:00,83.1,65.8,30.08,SSW,205,2.0,7.0,56,0.00,,,0.03,Wunderground v.1.15,2013-06-21 21:14:00,
2013-06-21 17:19:00,82.8,66.0,30.08,SSW,207,3.0,3.0,57,0.00,,,0.03,Wunderground v.1.15,2013-06-21 21:19:00,
2013-06-21 17:24:00,82.5,66.2,30.08,SW,221,3.0,10.0,58,0.00,,,0.03,Wunderground v.1.15,2013-06-21 21:24:00,
2013-06-21 17:30:00,82.1,65.9,30.08,SSW,198,2.0,2.0,58,0.00,,,0.03,Wunderground v.1.15,2013-06-21 21:30:00,
2013-06-21 17:35:00,81.9,65.7,30.08,SW,219,2.0,7.0,58,0.00,,,0.03,Wunderground v.1.15,2013-06-21 21:35:00,
2013-06-21 17:42:00,81.7,65.5,30.08,SSW,205,2.0,3.0,58,0.00,,,0.03,Wunderground v.1.15,2013-06-21 21:42:00,
2013-06-21 17:47:00,81.6,65.9,30.07,SSW,207,2.0,3.0,59,0.00,,,0.03,Wunderground v.1.15,2013-06-21 21:47:00,
2013-06-21 17:55:00,81.5,65.8,30.06,SSW,211,2.0,5.0,59,0.00,,,0.03,Wunderground v.1.15,2013-06-21 21:55:00,
2013-06-21 18:00:00,81.5,65.3,30.05,SW,222,3.0,4.0,58,0.00,,,0.03,Wunderground v.1.15,2013-06-21 22:00:00,
2013-06-21 18:06:00,81.5,65.3,30.06,South,182,3.0,4.0,58,0.00,,,0.03,Wunderground v.1.15,2013-06-21 22:06:00,
2013-06-21 18:11:00,81.6,65.9,30.05,South,186,2.0,3.0,59,0.00,,,0.03,Wunderground v.1.15,2013-06-21 22:11:00,
2013-06-21 18:17:00,81.6,65.4,30.05,SW,225,3.0,4.0,58,0.00,,,0.03,Wunderground v.1.15,2013-06-21 22:17:00,
2013-06-21 18:25:00,81.6,65.9,30.06,SSW,211,2.0,3.0,59,0.00,,,0.03,Wunderground v.1.15,2013-06-21 22:25:00,
2013-06-21 18:30:00,81.5,65.3,30.06,SSW,199,1.0,2.0,58,0.00,,,0.03,Wunderground v.1.15,2013-06-21 22:30:00,
2013-06-21 18:37:00,81.4,65.2,30.05,SSW,211,2.0,10.0,58,0.00,,,0.03,Wunderground v.1.15,2013-06-21 22:37:00,
2013-06-21 18:44:00,81.5,65.3,30.04,SSW,205,4.0,9.0,58,0.00,,,0.03,Wunderground v.1.15,2013-06-21 22:44:00,
2013-06-21 18:49:00,81.7,65.0,30.04,SSW,199,4.0,6.0,57,0.00,,,0.03,Wunderground v.1.15,2013-06-21 22:49:00,
2013-06-21 18:55:00,81.9,64.7,30.04,SSW,205,4.0,10.0,56,0.00,,,0.03,Wunderground v.1.15,2013-06-21 22:55:00,
2013-06-21 19:00:00,81.8,64.1,30.05,SSW,200,4.0,4.0,55,0.00,,,0.03,Wunderground v.1.15,2013-06-21 23:00:00,
2013-06-21 19:05:00,81.7,64.5,30.05,SSW,205,3.0,7.0,56,0.00,,,0.03,Wunderground v.1.15,2013-06-21 23:05:00,
2013-06-21 19:11:00,81.6,63.3,30.05,South,176,3.0,4.0,54,0.00,,,0.03,Wunderground v.1.15,2013-06-21 23:11:00,
2013-06-21 19:17:00,81.4,63.7,30.05,SSW,202,4.0,7.0,55,0.00,,,0.03,Wunderground v.1.15,2013-06-21 23:17:00,
2013-06-21 19:25:00,81.3,62.5,30.05,SW,217,2.0,5.0,53,0.00,,,0.03,Wunderground v.1.15,2013-06-21 23:25:00,
2013-06-21 19:30:00,81.2,63.0,30.05,South,172,3.0,5.0,54,0.00,,,0.03,Wunderground v.1.15,2013-06-21 23:30:00,
2013-06-21 19:37:00,80.9,62.7,30.04,SW,225,3.0,5.0,54,0.00,,,0.03,Wunderground v.1.15,2013-06-21 23:37:00,
2013-06-21 19:45:00,80.5,62.3,30.05,SSW,204,3.0,4.0,54,0.00,,,0.03,Wunderground v.1.15,2013-06-21 23:45:00,
2013-06-21 19:50:00,80.4,61.7,30.05,SW,228,3.0,6.0,53,0.00,,,0.03,Wunderground v.1.15,2013-06-21 23:50:00,
2013-06-21 19:56:00,80.3,61.6,30.05,SW,228,3.0,6.0,53,0.00,,,0.03,Wunderground v.1.15,2013-06-21 23:56:00,
2013-06-21 20:02:00,80.1,61.4,30.05,SW,233,3.0,5.0,53,0.00,,,0.03,Wunderground v.1.15,2013-06-22 00:02:00,
2013-06-21 20:08:00,80.0,60.8,30.05,South,191,3.0,5.0,52,0.00,,,0.03,Wunderground v.1.15,2013-06-22 00:08:00,
2013-06-21 20:14:00,80.2,61.0,30.05,SSW,209,4.0,13.0,52,0.00,,,0.03,Wunderground v.1.15,2013-06-22 00:14:00,
2013-06-21 20:19:00,80.1,60.9,30.04,SSW,211,4.0,4.0,52,0.00,,,0.03,Wunderground v.1.15,2013-06-22 00:19:00,
2013-06-21 20:24:00,80.1,60.9,30.04,SW,216,2.0,4.0,52,0.00,,,0.03,Wunderground v.1.15,2013-06-22 00:24:00,
2013-06-21 20:30:00,80.0,60.8,30.04,South,186,2.0,5.0,52,0.00,,,0.03,Wunderground v.1.15,2013-06-22 00:30:00,
2013-06-21 20:35:00,80.0,61.3,30.04,SSW,213,3.0,8.0,53,0.00,,,0.03,Wunderground v.1.15,2013-06-22 00:35:00,
2013-06-21 20:41:00,79.8,60.6,30.04,SSW,198,3.0,4.0,52,0.00,,,0.03,Wunderground v.1.15,2013-06-22 00:41:00,
2013-06-21 20:46:00,79.6,61.0,30.04,SSW,210,3.0,5.0,53,0.00,,,0.03,Wunderground v.1.15,2013-06-22 00:46:00,
2013-06-21 20:51:00,79.4,60.8,30.04,SSW,209,2.0,2.0,53,0.00,,,0.03,Wunderground v.1.15,2013-06-22 00:51:00,
2013-06-21 20:56:00,79.1,60.5,30.04,SW,221,1.0,2.0,53,0.00,,,0.03,Wunderground v.1.15,2013-06-22 00:56:00,
2013-06-21 21:02:00,78.7,60.7,30.04,SW,223,1.0,3.0,54,0.00,,,0.03,Wunderground v.1.15,2013-06-22 01:02:00,
2013-06-21 21:08:00,78.2,60.7,30.04,SW,225,1.0,3.0,55,0.00,,,0.03,Wunderground v.1.15,2013-06-22 01:08:00,
2013-06-21 21:13:00,77.8,60.8,30.05,WSW,240,0.0,1.0,56,0.00,,,0.03,Wunderground v.1.15,2013-06-22 01:13:00,
2013-06-21 21:19:00,77.4,60.5,30.05,NNW,343,0.0,0.0,56,0.00,,,0.03,Wunderground v.1.15,2013-06-22 01:19:00,
2013-06-21 21:24:00,76.9,61.0,30.05,SSE,167,0.0,0.0,58,0.00,,,0.03,Wunderground v.1.15,2013-06-22 01:24:00,
2013-06-21 21:29:00,76.5,61.1,30.06,SSE,167,0.0,0.0,59,0.00,,,0.03,Wunderground v.1.15,2013-06-22 01:29:00,
2013-06-21 21:35:00,75.9,61.0,30.06,SSE,167,0.0,0.0,60,0.00,,,0.03,Wunderground v.1.15,2013-06-22 01:35:00,
2013-06-21 21:41:00,75.3,60.5,30.05,South,172,0.0,0.0,60,0.00,,,0.03,Wunderground v.1.15,2013-06-22 01:41:00,
2013-06-21 21:46:00,75.0,60.6,30.06,South,185,0.0,1.0,61,0.00,,,0.03,Wunderground v.1.15,2013-06-22 01:46:00,
2013-06-21 21:51:00,74.9,60.5,30.06,SSW,198,0.0,0.0,61,0.00,,,0.03,Wunderground v.1.15,2013-06-22 01:51:00,
2013-06-21 21:56:00,74.8,60.4,30.06,South,191,0.0,2.0,61,0.00,,,0.03,Wunderground v.1.15,2013-06-22 01:56:00,
2013-06-21 22:03:00,74.6,60.3,30.06,SSW,192,0.0,0.0,61,0.00,,,0.03,Wunderground v.1.15,2013-06-22 02:03:00,
2013-06-21 22:08:00,74.4,60.1,30.06,SSW,192,0.0,1.0,61,0.00,,,0.03,Wunderground v.1.15,2013-06-22 02:08:00,
2013-06-21 22:13:00,74.2,60.3,30.07,SSW,192,0.0,0.0,62,0.00,,,0.03,Wunderground v.1.15,2013-06-22 02:13:00,
2013-06-21 22:19:00,73.9,60.5,30.07,SSW,192,0.0,0.0,63,0.00,,,0.03,Wunderground v.1.15,2013-06-22 02:19:00,
2013-06-21 22:24:00,73.6,60.7,30.07,SSW,192,0.0,0.0,64,0.00,,,0.03,Wunderground v.1.15,2013-06-22 02:24:00,
2013-06-21 22:30:00,73.1,60.6,30.07,SSW,192,0.0,0.0,65,0.00,,,0.03,Wunderground v.1.15,2013-06-22 02:30:00,
2013-06-21 22:35:00,72.6,60.2,30.07,SSW,192,0.0,0.0,65,0.00,,,0.03,Wunderground v.1.15,2013-06-22 02:35:00,
2013-06-21 22:41:00,72.2,60.6,30.07,SSW,192,0.0,0.0,67,0.00,,,0.03,Wunderground v.1.15,2013-06-22 02:41:00,
2013-06-21 22:46:00,71.9,60.3,30.08,SSW,192,0.0,0.0,67,0.00,,,0.03,Wunderground v.1.15,2013-06-22 02:46:00,
2013-06-21 22:51:00,71.6,60.1,30.08,SSW,192,0.0,0.0,67,0.00,,,0.03,Wunderground v.1.15,2013-06-22 02:51:00,
2013-06-21 22:57:00,71.3,60.2,30.08,SSW,192,0.0,0.0,68,0.00,,,0.03,Wunderground v.1.15,2013-06-22 02:57:00,
2013-06-21 23:03:00,71.3,60.2,30.08,SSW,192,0.0,0.0,68,0.00,,,0.03,Wunderground v.1.15,2013-06-22 03:03:00,
2013-06-21 23:08:00,71.1,60.0,30.08,SSW,192,0.0,0.0,68,0.00,,,0.03,Wunderground v.1.15,2013-06-22 03:08:00,
2013-06-21 23:13:00,71.0,60.3,30.08,SSW,192,0.0,1.0,69,0.00,,,0.03,Wunderground v.1.15,2013-06-22 03:13:00,
2013-06-21 23:19:00,71.0,60.3,30.08,SSW,192,0.0,0.0,69,0.00,,,0.03,Wunderground v.1.15,2013-06-22 03:19:00,
2013-06-21 23:24:00,71.0,60.3,30.08,SSW,192,0.0,1.0,69,0.00,,,0.03,Wunderground v.1.15,2013-06-22 03:24:00,
2013-06-21 23:30:00,71.0,60.3,30.08,SSW,192,0.0,0.0,69,0.00,,,0.03,Wunderground v.1.15,2013-06-22 03:30:00,
2013-06-21 23:35:00,71.0,60.3,30.08,SSW,192,0.0,0.0,69,0.00,,,0.03,Wunderground v.1.15,2013-06-22 03:35:00,
2013-06-21 23:41:00,71.0,60.3,30.08,SSW,192,0.0,0.0,69,0.00,,,0.03,Wunderground v.1.15,2013-06-22 03:41:00,
2013-06-21 23:46:00,70.9,60.6,30.08,SSW,192,0.0,1.0,70,0.00,,,0.03,Wunderground v.1.15,2013-06-22 03:46:00,
2013-06-21 23:52:00,71.0,60.3,30.08,SW,217,0.0,1.0,69,0.00,,,0.03,Wunderground v.1.15,2013-06-22 03:52:00,
2013-06-21 23:58:00,71.3,60.6,30.08,SSW,211,0.0,2.0,69,0.00,,,0.03,Wunderground v.1.15,2013-06-22 03:58:00,